CZ-6A DEB

Satellite information

Favourite Embed

Satellite Type and Status

DEBRISIN ORBIT

Key statistics

Satellite CZ-6A DEB at a glance.

Uptime

1080

Days in orbit

Revolutions

≈ 14.4

Per day

Orbit

SSO

Sun Synchronous Orbit

Inclination

98.6

Latest

Satellite identification and parameters

Extended collection of information and parameters for CZ-6A DEB.

Object identification

Identified? True

Debris? True

Object name: CZ-6A DEB

International designator: 2022-151MH

Object number (NORAD): 54581

Object ID (CCSDS): 54581

Country: PEOPLES REPUBLIC OF CHINA (PRC)

Current information (Y/N): Y

RCS size: LARGE

Orbital parameters

Period: 100.127 minutes

Inclination: 98.6375 deg

SMA: 7142.689 km

Apoapsis: 848.279 km

Periapsis: 680.829 km

RAAN: 328.8278 deg

Eccentricy: 0.01172178

Argument of periapsis: 343.4086 deg

Mean anomaly: 16.3278 deg

Mean motion: 14.38169883 rev/day

Mean motion (dot): 0.00000768 rev/day2

B* drag term: 0.00024854765 1/REarth

Two-line elements (TLE)

Creation date: Oct. 26, 2025, 2:54 a.m.

Reference frame: TEME

Reference center: EARTH

Epoch: Oct. 25, 2025, 10:53 p.m. UTC

TLE line 0: 0 CZ-6A DEB

TLE line 1: 1 54581U 22151MH 25298.95369066 .00000768 00000-0 24855-3 0 9992

TLE line 2: 2 54581 98.6375 328.8278 0117218 343.4086 16.3278 14.38169883154243

Live tracking on map

Real-time ground track for satellite CZ-6A DEB.

In-orbit conjunctions

A list of the most updated potential collisions computed for object CZ-6A DEB.

Target Orbit TCA Probability of collision Miss distance Type
SCOUT X-4 DEB LEO 2025-08-15 23:12:17 0.0001064606 125.0 (m) DEBRIS
METEOR 1-26 LEO 2024-07-29 03:32:56 0.00116258 822.0 (m) PAYLOAD

Associated space launch

Chinese satellite reported for atmospheric/ocean/environmental/spatial parameter research purposes, details TBD.

CZ-6A DEB was lifted into orbit during the mission ‘Long March 6A | Yunhai 3’, on board a Long March 6A space rocket.

The launch took place on Nov. 11, 2022, 10:52 p.m. from Launch Complex 9A.

For more information about the launch, click the button.

Launch to space Long March 6A | Yunhai 3
Long March 6A | Yunhai 3

Agency: N/A

Status: Launch Successful

Launch date: Nov. 11, 2022, 10:52 p.m. UTC

Rocket: Long March 6A

Launch pad: Launch Complex 9A

Location: Taiyuan Satellite Launch Center, People's Republic of China

...

Latest news about this satellite

There are no fresh news available about this satellite. Check back as we update our databases every day.


Newsletter sign-up

Weekly statistics, charts and insights to help you stay on top of the space industry.